Regional Weather Roundup
Issued by NWS Wakefield, VA

Home | Current Version | Previous Version | Text Only | Print | Product List | Glossary On
Versions: 1 2 3 4 5 6 7 8 9 10 11 12 13 14 15 16 17 18 19 20 21 22 23 24 25 26 27 28 29 30 31 32 33 34 35 36 37 38 39 40 41 42 43 44 45 46 47 48 49 50
000
ASUS41 KAKQ 190915
RWRAKQ

REGIONAL WEATHER ROUNDUP
NATIONAL WEATHER SERVICE WAKEFIELD VA
400 AM EST FRI JAN 19 2018

Note: "fair" indicates few or no clouds below 12,000 feet with no
significant weather and/or obstructions to visibility. * = Denotes
station may not report precipitation (e.g., rain,snow,etc.),
thunder or fog.

VAZ042-051-052>054-056-191000-
NORTHERN VIRGINIA

CITY           SKY/WX    TMP DP  RH WIND       PRES   REMARKS
WASH NATIONAL  FAIR      29  20  69 S3        30.10F
DULLES         FAIR      22  15  75 CALM      30.08F
FORT BELVOIR   FAIR      20  14  79 CALM      30.09F
QUANTICO       NOT AVBL
FREDERICKSBRG* FAIR      21  17  86 CALM      30.10F
STAFFORD*      FAIR      21  17  84 CALM      30.13F
WARRENTON      FAIR      17  12  80 CALM      30.08F
CULPEPER*      FAIR      18  13  79 CALM      30.10S
MANASSAS*      FAIR      16  14  92 CALM      30.10F
LEESBURG*      FAIR      28  14  54 W3        30.09S
WINCHESTER     FAIR      37   5  25 SW7       30.08S
FRONT ROYAL*   FAIR      34   9  35 SE6       30.05F
LURAY*         FAIR      32   9  37 SW7       30.07S
$$

VAZ048-049-060>072-079>083-191000-
CENTRAL AND SOUTH CENTRAL VIRGINIA

CITY           SKY/WX    TMP DP  RH WIND       PRES   REMARKS
RICHMOND       FAIR      32  13  45 CALM      30.10F
CHESTERFIELD*  NOT AVBL
PETERSBURG*    FAIR      27  14  59 SW3       30.12S
HANOVER        FAIR      29  13  51 W3        30.11F
TAPPAHANNOCK*  FAIR      23  18  81 SW3       30.11F
QUINTON*       FAIR      24  21  90 CALM      30.10F
CHARLOTTSVILLE FAIR      41  -1  17 SW7       30.07F
GORDONSVILLE*  FAIR      27  12  53 CALM      30.08S
ORANGE*        FAIR      27  12  54 CALM      30.08F
LOUISA*        FAIR      29   8  41 SW5       30.12F
BUMPASS*       FAIR      28  10  45 SW5       30.09F
FARMVILLE*     FAIR      25  15  66 SW5       30.10F
CREWE*         FAIR      31  12  45 W5        30.11S
FORT PICKETT*  FAIR      28  13  52 W7        30.11F
CHASE CITY*    FAIR      25  15  66 SW3       30.14S
CLARKSVILLE*   FAIR      30  14  51 SW3       30.16S
SOUTH HILL*    FAIR      28  17  63 SW5       30.19F
LAWRENCEVILLE* FAIR      27  16  63 CALM      30.13F
EMPORIA*       FAIR      25  19  80 CALM      30.16F
$$

VAZ088>098-191000-
SOUTHEAST VIRGINIA

CITY           SKY/WX    TMP DP  RH WIND       PRES   REMARKS
NORFOLK        FAIR      25  20  81 SW8       30.13F
VIRGINIA BEACH FAIR      37  17  44 SW5       30.13F
NORFOLK NAVAL  FAIR      29  19  66 S5        30.14F
WEST POINT*    FAIR      21  19  89 CALM      30.13F
SALUDA*        FAIR      26  18  71 CALM      30.11F
NEWPORT NEWS   FAIR      25  18  74 SW5       30.13F
LANGLEY AFB    FAIR      28  20  71 S7        30.12F
FORT EUSTIS    FAIR      26  19  73 CALM      30.11F
WILLIAMSBURG*  FAIR      27  18  69 CALM      30.13F
HR EXEC AP*    FAIR      21  17  84 CALM      30.15F
FRANKLIN*      FAIR      23  19  87 CALM      30.16S
US460-WAKEFLD  FAIR      24  20  84 CALM      30.13F
$$

VAZ020-022-025-037-045-191000-
WEST CENTRAL AND SOUTHWEST VIRGINIA

CITY           SKY/WX    TMP DP  RH WIND       PRES   REMARKS
STAUNTON*      FAIR      28   7  41 SW7       30.09F
WAYNESBORO*    FAIR      34  -1  22 SW6       30.08S
HOT SPRINGS VA FAIR      24  -9  23 W22       30.01F WCI   9
LYNCHBURG      FAIR      24   7  48 S3        30.12S
DANVILLE       FAIR      24  14  65 SW6       30.18S
SOUTH BOSTON*  FAIR      26  14  62 SW5       30.16S
MARTINSVILLE   FAIR      16  11  80 CALM      30.20S
ROANOKE        FAIR      31   7  36 W10G21    30.16F WCI  22
BLACKSBURG     FAIR      22   7  52 CALM      30.17F
DUBLIN*        FAIR      23  10  56 SW9       30.17S
MARION*        FAIR      20   7  56 W13       30.20F WCI   7
HILLSVILLE*    FAIR      24   2  37 SW5       30.12F
RICHLANDS*     FAIR      17   9  71 CALM      30.19S
WISE*          FAIR      19  12  73 SW6       30.19F
ABINGDON*      FAIR      17  12  81 CALM      30.24S
$$

MDZ021>025-VAZ099-100-191000-
SOUTHERN MARYLAND AND THE DELMARVA PENINSULA

CITY           SKY/WX    TMP DP  RH WIND       PRES   REMARKS
PATUXENT RIVER NOT AVBL
BAY BRIDGE APT FAIR      30  14  51 MISG      30.09F
LEONARDTOWN    FAIR      28  16  59 CALM      30.11F
DOVER          FAIR      23  19  83 S7        30.09S
GEORGETOWN     FAIR      22  15  75 CALM      30.11S
EASTON         FAIR      26  18  71 S3        30.13S
CAMBRIDGE      CLEAR     23  16  74 CALM      30.10F
SALISBURY      FAIR      24  19  81 S3        30.10F
OCEAN CITY     FAIR      26  18  71 W3        30.12S
WALLOPS ISLAND FAIR      32  20  61 W8        30.12F
ACCOMACK*      FAIR      25  21  85 CALM      30.12F
$$

NCZ012>017-030>032-191000-
NORTH CENTRAL AND EASTERN NORTH CAROLINA

CITY           SKY/WX    TMP DP  RH WIND       PRES   REMARKS
ROANOKE RAPIDS FAIR      25  19  80 W5        30.16F
RALEIGH        FAIR      22  19  89 SW3       30.20F
ELIZABETH CITY FAIR      25  21  85 SW8       30.16F
AHOSKIE*       FAIR      23  19  85 CALM      30.17S
EDENTON*       FAIR      33  24  71 CALM      30.18F
CURRITUCK*     FAIR      27  21  77 CALM      30.15F
KILL DEVIL HLS FAIR      30  25  83 MISG      30.16F
MANTEO         FAIR      29  22  76 SW5       30.18F
CAPE HATTERAS  FAIR      33  29  85 W6        30.19F
TARBORO*       NOT AVBL
GOLDSBORO      FAIR      29  22  75 W6        30.19F
WASHINGTON     FAIR      29  22  76 CALM      30.20S
GREENVILLE     FAIR      30  23  74 SW3       30.21S
NEW BERN       FAIR      27  20  75 CALM      30.21F
WILMINGTON     FAIR      29  19  66 SW6       30.24F
$$

VAZ048-191000-
ELSEWHERE

CITY           SKY/WX    TMP DP  RH WIND       PRES   REMARKS
HARRISBURG PA  FAIR      16  12  84 CALM      30.06S
BALTIMORE      FAIR      25  13  60 SW3       30.08F
ANNAPOLIS      FAIR      28  20  71 N3        30.09F
ANDREWS AFB    FAIR      24  14  66 CALM      30.07F
PHILADELPHIA   FAIR      25  15  66 SW8       30.09R
HENDERSON NC   FAIR      22  11  62 SW7       30.16S
GREENSBORO     FAIR      25  18  74 CALM      30.17F
ROCKY MOUNT    NOT AVBL
$$

VAZ100-191000-
MARINE

STATION/POSITION TIME  TEMP    WIND        PRES    WAVE   SWELL
                       AIR SEA DIR/SP/G            HT/PER HT/PER
                 (UTC) (F)     (DEG/KT/KT) (MB)    (FT/S) (FT/S)
BRANDYWINE LGT   0842   33     240/  9/ 10 1019.5F
CAPE MAY NJ      0848   30 32  230/  5/  7 1018.8F
LEWES DE         0848   28 33  230/  5/  6 1019.3F
15NM E FENWICK I 0850   35 40  260/ 10/ 14 1020.0F   3/ 5   2/10
OCEAN-CITY-INLET 0848   30 33  270/  5/  6 1020.2F
WACHAPREAGUE VA  0848   28 32   CALM  /  1 1020.0F
THOMAS POINT MD  0900   31 32  230/  4/  4   N/A
GOOSES REEF MD   0900   33 32  210/  8/  8 1019.4    1
COVE POINT MD    0848   33     190/  3/  5 1019.7F
SOLOMONS ISLAND  0848   30 33  220/  4/  5 1019.1F
BISHOPS HEAD MD  0848   32 31  230/  4/  6 1019.6F
PINEY POINT MD   0848           CALM  /  1   N/A
POTOMAC MD       0900   31 33  340/  4/  4 1019.0    0
CAMBRIDGE MD     0848   27 32              1019.9F
LEWISETTA VA     0848   29 31  230/  3/  3 1019.5F
RAPPAHANNOCK LGT 0848          140/  4/  5 1020.3F
STINGRAY PT      0900   31 33  180/  4/  6 1022.5    0
YORK RVR RNG VA  0848   33     250/  9/ 10 1020.4F
YORKTOWN VA      0848   31 34  230/  2/  4 1019.9F
DOMINION TERM VA 0848   30     220/  5/  6 1020.7F
KIPTOPEKE VA     0848      34  240/  8/ 10   N/A
CAPE HENRY VA    0848   30     240/  6/ 11   N/A
WILLOUBY STN VA  0848          220/  9/ 10 1020.1F
S CRANEY ISL VA  0848   29     200/  4/  5 1020.6F
CAPE HENRY BUOY  0900      40                N/A     2/11   2/11
1ST LANDING BUOY 0900   31 35  240/ 10/ 10 1020.5    1/ 2
CAPE CHARLES BUO 0851      37                N/A     2/10
64NM E OF VA BCH 0850   44 60  290/ 16/ 17 1021.0S   5/ 5   2/ 8
DUCK PIER NC     0848   32 38  250/  8/ 12 1020.7F
44100 DUCK FRF   0815      43                N/A     3/10   2/11
44056 DUCK FRF   0900      39                N/A     3/10   2/11
OREGON INLET NC  0842   31 35  240/  6/  7 1022.0F
HATTERAS NC      0848   36 40  280/  9/ 10 1022.1F
DIAMOND SHLS NC  0900   43     300/ 12/ 16 1022.6
CAPE LOOKOUT NC  0900          290/ 13/ 15 1023.0F
$$



USA.gov is the U.S. government's official web portal to all federal, state and local government web resources and services.